CW9098 Weather Reports


Display with metric or nautical units.
time (UTC)temp
F
wind
direction
speed
MPH
gust
MPH
rain 1hr
in
rain 24hr
in
rain mn
in
humidity
%
barometer
mb
20200402062949 39 309 7.0 13.0 0.01 0.02 0.01 58 1013.5
20200402062443 40 301 3.0 12.0 0.01 0.02 0.01 57 1013.6
20200402061937 40 286 4.0 15.0 0.01 0.02 0.01 57 1013.7
20200402061436 40 315 9.0 15.0 0.01 0.02 0.01 56 1013.7
20200402060935 40 282 9.0 15.0 0.01 0.02 0.01 56 1013.7
20200402060434 40 312 8.0 15.0 0.01 0.02 0.01 56 1013.7
20200402055933 40 320 5.0 11.0 0.00 0.01 0.00 55 1013.7
20200402055447 40 314 7.0 18.0 0.00 0.01 0.00 55 1013.6
20200402054942 40 301 9.0 15.0 0.00 0.01 0.00 55 1013.6
20200402054442 41 318 5.0 13.0 0.00 0.01 0.00 55 1013.5
20200402053940 41 299 8.0 15.0 0.00 0.01 0.00 53 1013.6
20200402053435 41 319 7.0 16.0 0.00 0.01 0.00 53 1013.6
20200402052930 41 323 9.0 16.0 0.00 0.01 0.00 53 1013.6
20200402052445 41 311 9.0 16.0 0.00 0.01 0.00 53 1013.4
20200402051939 41 333 9.0 16.0 0.00 0.01 0.00 53 1013.5
20200402051436 41 326 7.0 15.0 0.00 0.01 0.00 53 1013.5
20200402050929 41 330 8.0 15.0 0.00 0.01 0.00 52 1013.4
20200402050444 41 313 9.0 18.0 0.00 0.01 0.00 52 1013.4
20200402045941 41 311 12.0 18.0 0.00 0.01 0.00 51 1013.3
20200402045436 41 328 7.0 14.0 0.00 0.01 0.00 52 1013.3
20200402044929 41 343 7.0 15.0 0.00 0.01 0.00 52 1013.3
20200402044449 41 330 10.0 18.0 0.00 0.01 0.00 52 1013.3
20200402043943 41 322 12.0 18.0 0.00 0.01 0.00 52 1013.2
20200402043438 41 318 8.0 15.0 0.00 0.01 0.00 51 1013.1
20200402042934 41 336 10.0 15.0 0.00 0.01 0.00 51 1013.1
20200402042429 41 324 9.0 12.0 0.00 0.01 0.00 52 1013.2
20200402041928 42 335 9.0 19.0 0.00 0.01 0.00 51 1013.1
20200402041445 42 323 10.0 19.0 0.00 0.01 0.00 50 1013.2
20200402040939 42 15 8.0 18.0 0.00 0.01 0.00 51 1013.2
20200402040437 42 333 7.0 18.0 0.00 0.01 0.00 51 1013.1
20200402035936 42 355 8.0 15.0 0.00 0.01 0.00 51 1013.1
20200402035431 42 355 10.0 15.0 0.00 0.01 0.01 51 1013.1
20200402034946 42 343 8.0 13.0 0.00 0.01 0.01 50 1013.1
20200402034442 42 334 7.0 15.0 0.00 0.01 0.01 50 1013.1
20200402033938 42 316 9.0 15.0 0.00 0.01 0.01 51 1013.1
20200402033436 42 309 6.0 14.0 0.00 0.01 0.01 51 1013.1
20200402032934 42 307 8.0 15.0 0.00 0.01 0.01 52 1013.0
20200402032429 41 318 3.0 9.0 0.00 0.01 0.01 53 1013.0
20200402031944 42 14 3.0 10.0 0.00 0.01 0.01 55 1012.9
20200402031442 42 360 5.0 10.0 0.00 0.01 0.01 54 1012.9
20200402030936 42 343 2.0 8.0 0.00 0.01 0.01 55 1012.8
20200402030431 42 10 4.0 9.0 0.00 0.01 0.01 54 1012.8
20200402025930 43 10 4.0 13.0 0.00 0.01 0.01 54 1012.7
20200402025445 43 18 6.0 13.0 0.00 0.01 0.01 53 1012.7
20200402024940 43 19 7.0 13.0 0.00 0.01 0.01 54 1012.8
20200402024439 43 5 8.0 14.0 0.00 0.01 0.01 53 1012.7
20200402023933 43 22 8.0 15.0 0.00 0.01 0.01 53 1012.6
20200402023448 44 20 10.0 15.0 0.00 0.01 0.01 52 1012.6
20200402022944 44 20 8.0 15.0 0.00 0.01 0.01 53 1012.5
20200402022437 44 22 11.0 19.0 0.00 0.01 0.01 51 1012.5
20200402021932 44 18 12.0 19.0 0.00 0.01 0.01 51 1012.4
20200402021430 44 349 10.0 16.0 0.00 0.01 0.01 52 1012.4
20200402020944 44 17 10.0 15.0 0.00 0.01 0.01 51 1012.4
20200402020438 44 20 4.0 14.0 0.00 0.01 0.01 52 1012.3
20200402015935 45 360 2.0 10.0 0.00 0.01 0.01 52 1012.2
20200402015430 45 20 5.0 11.0 0.00 0.01 0.01 50 1012.2
20200402014944 46 19 6.0 11.0 0.00 0.01 0.01 48 1012.1
20200402014439 46 347 3.0 14.0 0.00 0.01 0.01 47 1012.0
20200402013934 46 344 5.0 14.0 0.00 0.01 0.01 47 1012.0
20200402013433 47 350 3.0 12.0 0.00 0.01 0.01 47 1011.9
20200402012930 47 351 4.0 12.0 0.00 0.01 0.01 45 1011.8
20200402012445 47 289 4.0 19.0 0.00 0.01 0.01 47 1011.8
20200402011936 48 343 7.0 19.0 0.00 0.01 0.01 45 1011.7
20200402011433 48 341 11.0 21.0 0.00 0.01 0.01 44 1011.6
20200402010931 48 302 10.0 20.0 0.00 0.01 0.01 44 1011.6
20200402010446 48 332 12.0 20.0 0.00 0.01 0.01 44 1011.4
20200402005942 48 328 8.0 15.0 0.00 0.01 0.01 46 1011.3
20200402005435 48 329 6.0 22.0 0.00 0.01 0.01 46 1011.2
20200402004931 48 335 4.0 14.0 0.00 0.01 0.01 45 1011.1
20200402004446 49 334 6.0 18.0 0.00 0.01 0.01 45 1011.0
20200402003940 48 308 11.0 15.0 0.00 0.01 0.01 45 1010.9
20200402003437 48 329 7.0 11.0 0.00 0.01 0.01 48 1010.8
20200402002937 48 349 4.0 14.0 0.00 0.01 0.01 47 1010.7
20200402002432 48 312 9.0 17.0 0.00 0.01 0.01 49 1010.5
20200402001947 49 303 7.0 20.0 0.00 0.01 0.01 49 1010.5
20200402001442 48 360 10.0 18.0 0.00 0.01 0.01 51 1010.4
20200402000944 48 301 9.0 12.0 0.00 0.01 0.01 53 1010.4
20200402000438 48 318 2.0 12.0 0.00 0.01 0.01 54 1010.2
20200402000013 48 309 2.0 5.0 0.00 0.01 0.01 54 1010.2
20200401235433 49 313 1.0 10.0 0.00 0.01 0.01 54 1010.1
20200401234948 49 303 5.0 10.0 0.00 0.01 0.01 53 1009.9
20200401234443 49 310 1.0 9.0 0.00 0.01 0.01 54 1009.9
20200401233937 49 338 1.0 15.0 0.00 0.01 0.01 54 1009.9
20200401233433 50 343 6.0 15.0 0.00 0.01 0.01 52 1009.9
20200401232949 50 334 3.0 13.0 0.00 0.01 0.01 53 1009.8
20200401232442 50 334 11.0 13.0 0.00 0.01 0.01 53 1009.7
20200401231937 50 314 6.0 14.0 0.00 0.01 0.01 54 1009.8
20200401231433 50 315 9.0 15.0 0.00 0.01 0.01 53 1009.8
20200401230949 50 299 9.0 15.0 0.00 0.01 0.01 54 1009.7
20200401230442 50 301 8.0 14.0 0.00 0.01 0.01 54 1009.6
20200401225940 50 324 7.0 13.0 0.00 0.01 0.01 54 1009.7
20200401225434 51 305 7.0 16.0 0.00 0.01 0.01 54 1009.6
20200401224929 51 303 7.0 14.0 0.00 0.01 0.01 56 1009.6
20200401224429 51 317 8.0 12.0 0.00 0.01 0.01 56 1009.5
20200401223944 51 331 5.0 13.0 0.00 0.01 0.01 60 1009.5
20200401223438 51 334 7.0 13.0 0.00 0.01 0.01 59 1009.5
20200401222931 51 307 5.0 16.0 0.00 0.01 0.01 60 1009.5
20200401222443 51 329 8.0 16.0 0.00 0.01 0.01 60 1009.5
20200401221937 51 304 9.0 13.0 0.00 0.01 0.01 60 1009.4
20200401221433 52 326 5.0 11.0 0.00 0.01 0.01 63 1009.4
20200401220948 52 326 7.0 10.0 0.00 0.01 0.01 66 1009.4
20200401220443 51 334 5.0 9.0 0.00 0.01 0.01 65 1009.4
20200401215939 51 309 3.0 13.0 0.00 0.01 0.01 66 1009.3
20200401215437 51 332 3.0 13.0 0.00 0.01 0.01 66 1009.4
20200401214932 51 346 6.0 13.0 0.00 0.01 0.01 66 1009.2
20200401214449 51 347 5.0 14.0 0.00 0.01 0.01 66 1009.2
20200401213942 51 332 7.0 15.0 0.00 0.01 0.01 66 1009.1
20200401213437 51 340 10.0 15.0 0.00 0.01 0.01 66 1009.1
20200401212934 51 297 9.0 15.0 0.00 0.01 0.01 65 1009.0
20200401212503 51 341 7.0 15.0 0.00 0.01 0.01 64 1009.0
20200401211944 51 345 5.0 16.0 0.00 0.01 0.01 65 1009.0
20200401211444 51 318 10.0 16.0 0.00 0.01 0.01 66 1009.0
20200401210938 51 278 9.0 16.0 0.00 0.01 0.01 66 1008.9
20200401210433 51 334 6.0 21.0 0.00 0.01 0.01 67 1009.0
20200401205930 51 334 14.0 21.0 0.00 0.01 0.01 69 1009.0
20200401205444 51 316 12.0 19.0 0.00 0.01 0.01 68 1009.0
20200401204939 50 314 9.0 16.0 0.00 0.01 0.01 72 1009.0
20200401204436 50 5 7.0 18.0 0.00 0.01 0.01 72 1008.9
20200401203934 49 336 11.0 18.0 0.00 0.01 0.01 74 1009.0
20200401203432 49 351 10.0 18.0 0.00 0.01 0.01 73 1009.1
20200401202930 48 308 7.0 13.0 0.00 0.01 0.01 73 1009.1
20200401202445 47 320 7.0 13.0 0.00 0.01 0.01 76 1009.1
20200401201939 47 263 6.0 16.0 0.00 0.01 0.01 77 1009.1
20200401201435 47 281 10.0 20.0 0.00 0.01 0.01 76 1009.2
20200401200930 48 284 12.0 24.0 0.00 0.01 0.01 74 1009.3
20200401200444 48 305 16.0 24.0 0.00 0.01 0.01 72 1009.3
20200401195931 49 322 9.0 13.0 0.00 0.01 0.01 73 1009.2
20200401195430 49 338 8.0 22.0 0.00 0.01 0.01 73 1009.1
20200401194946 50 300 13.0 22.0 0.00 0.01 0.01 70 1009.1
20200401194445 50 308 7.0 15.0 0.00 0.01 0.01 75 1009.0
20200401193938 50 314 2.0 9.0 0.00 0.01 0.01 74 1009.1
20200401193437 49 319 2.0 11.0 0.00 0.01 0.01 74 1009.0
20200401192937 49 324 5.0 9.0 0.00 0.01 0.01 75 1009.0
20200401192432 48 301 5.0 11.0 0.00 0.01 0.01 76 1009.1
20200401191947 48 341 4.0 12.0 0.00 0.01 0.01 78 1009.1
20200401191443 48 272 6.0 12.0 0.00 0.01 0.01 78 1009.2
20200401190938 47 272 6.0 10.0 0.00 0.01 0.01 81 1009.3
20200401190431 47 280 2.0 12.0 0.00 0.01 0.01 81 1009.4
20200401185930 47 266 8.0 12.0 0.00 0.01 0.01 79 1009.5
20200401185444 47 302 4.0 9.0 0.00 0.02 0.01 81 1009.5
20200401184939 47 314 5.0 20.0 0.00 0.02 0.01 80 1009.4
20200401184437 48 360 5.0 20.0 0.00 0.02 0.01 77 1009.5
20200401183933 50 342 15.0 19.0 0.00 0.02 0.01 78 1009.5
20200401183432 50 283 8.0 10.0 0.00 0.02 0.01 80 1009.3
20200401182949 49 279 2.0 13.0 0.00 0.02 0.01 80 1009.5
20200401182442 49 253 6.0 13.0 0.00 0.02 0.01 82 1009.5
20200401181939 48 274 6.0 13.0 0.00 0.02 0.01 83 1009.5
20200401181439 47 282 9.0 15.0 0.00 0.02 0.01 80 1009.6
20200401180932 48 270 10.0 15.0 0.00 0.02 0.01 79 1009.8
20200401180447 48 314 7.0 12.0 0.00 0.02 0.01 81 1009.8
20200401175943 48 301 5.0 11.0 0.00 0.02 0.01 81 1009.9
20200401175428 48 311 8.0 13.0 0.00 0.02 0.01 79 1009.9
20200401174943 48 308 10.0 13.0 0.00 0.02 0.01 79 1009.9
20200401174440 49 349 5.0 8.0 0.00 0.02 0.01 78 1009.8
20200401173934 49 298 2.0 10.0 0.00 0.02 0.01 80 1009.8
20200401173429 48 10 4.0 10.0 0.00 0.02 0.01 81 1009.8
20200401172948 48 31 5.0 9.0 0.00 0.02 0.01 83 1009.9
20200401172433 47 28 4.0 6.0 0.00 0.02 0.01 84 1010.1
20200401171928 47 72 1.0 6.0 0.00 0.02 0.01 84 1010.1
20200401171448 47 72 2.0 8.0 0.00 0.02 0.01 83 1010.1
20200401170941 48 74 4.0 8.0 0.00 0.02 0.01 85 1010.2
20200401170436 47 44 4.0 8.0 0.00 0.02 0.01 86 1010.2
20200401165936 47 78 4.0 8.0 0.00 0.02 0.01 87 1010.3
20200401165448 46 80 0.0 3.0 0.00 0.02 0.01 87 1010.5
20200401164943 46 68 0.0 6.0 0.00 0.02 0.01 87 1010.4
20200401164439 45 69 2.0 5.0 0.00 0.02 0.01 88 1010.6
20200401163934 45 68 0.0 4.0 0.00 0.02 0.01 87 1010.7
20200401163431 45 68 0.0 4.0 0.00 0.02 0.01 87 1010.8
20200401162949 45 68 0.0 4.0 0.00 0.02 0.01 86 1010.8
20200401162445 45 68 0.0 3.0 0.00 0.02 0.01 87 1010.8
20200401161942 44 68 0.0 3.0 0.00 0.02 0.01 87 1010.8
20200401161438 44 68 0.0 3.0 0.00 0.02 0.01 86 1010.9
20200401160931 44 68 1.0 3.0 0.00 0.02 0.01 85 1010.9
20200401160447 44 68 0.0 3.0 0.00 0.02 0.01 85 1011.0
20200401155942 45 68 0.0 0.0 0.00 0.02 0.01 85 1011.0
20200401155437 45 68 0.0 0.0 0.00 0.02 0.01 86 1011.0
20200401154931 45 68 0.0 0.0 0.00 0.02 0.01 86 1010.9
20200401154447 45 68 0.0 0.0 0.00 0.02 0.01 87 1010.9
20200401153941 44 68 0.0 0.0 0.00 0.02 0.01 87 1010.9
20200401153436 44 68 0.0 0.0 0.00 0.02 0.01 87 1011.0
20200401152935 44 68 0.0 0.0 0.00 0.02 0.01 88 1011.0
20200401152429 44 68 0.0 0.0 0.00 0.02 0.01 88 1011.0
20200401151944 44 68 0.0 0.0 0.00 0.02 0.01 87 1011.0
20200401151440 44 68 0.0 0.0 0.00 0.02 0.01 88 1011.0
20200401150934 43 68 0.0 0.0 0.00 0.02 0.01 87 1011.0
20200401150428 43 68 0.0 0.0 0.00 0.02 0.01 88 1011.0
20200401145947 43 68 0.0 0.0 0.00 0.02 0.01 88 1011.1
20200401145441 43 68 0.0 0.0 0.00 0.02 0.01 88 1011.0
20200401144935 43 68 0.0 0.0 0.00 0.02 0.01 88 1011.0
20200401144432 43 68 0.0 0.0 0.00 0.02 0.01 89 1011.0
20200401143947 43 68 0.0 0.0 0.00 0.02 0.01 89 1010.9
20200401143442 43 68 0.0 0.0 0.00 0.02 0.01 89 1010.9
20200401142939 43 68 0.0 2.0 0.00 0.02 0.01 89 1010.8
20200401142433 42 68 0.0 4.0 0.00 0.02 0.01 90 1010.8
20200401141949 42 68 0.0 4.0 0.00 0.02 0.01 89 1010.7
20200401141445 42 68 0.0 4.0 0.00 0.02 0.01 90 1010.7
20200401140941 42 68 2.0 4.0 0.00 0.02 0.01 91 1010.7
20200401140442 42 68 0.0 4.0 0.00 0.02 0.01 91 1010.6
20200401135940 42 64 0.0 4.0 0.00 0.02 0.01 91 1010.6
20200401135433 42 64 2.0 4.0 0.00 0.02 0.01 91 1010.5
20200401134948 42 61 0.0 4.0 0.00 0.02 0.01 92 1010.4
20200401134447 42 61 1.0 4.0 0.00 0.02 0.01 92 1010.3
20200401133941 41 60 0.0 3.0 0.00 0.02 0.01 92 1010.4
20200401133435 41 60 0.0 3.0 0.00 0.02 0.01 92 1010.3
20200401132949 41 60 2.0 3.0 0.00 0.02 0.01 92 1010.3
20200401132443 41 60 1.0 3.0 0.00 0.02 0.01 92 1010.3
20200401131937 41 48 0.0 0.0 0.00 0.02 0.01 92 1010.2
20200401131433 41 47 0.0 0.0 0.00 0.02 0.01 92 1010.2
20200401130947 41 47 0.0 0.0 0.00 0.02 0.01 92 1010.1
20200401130441 41 47 0.0 3.0 0.00 0.02 0.01 92 1010.1
20200401125938 41 47 0.0 3.0 0.00 0.02 0.01 92 1010.1
20200401125433 40 47 2.0 4.0 0.00 0.02 0.01 92 1010.1
20200401124947 40 47 2.0 4.0 0.00 0.02 0.01 92 1010.1
20200401124439 40 45 0.0 0.0 0.00 0.02 0.01 92 1010.1
20200401123937 40 45 0.0 3.0 0.00 0.02 0.01 92 1010.1
20200401123432 40 45 1.0 3.0 0.00 0.02 0.01 92 1010.0
20200401122949 40 45 1.0 3.0 0.00 0.02 0.01 92 1010.0
20200401122442 40 45 0.0 2.0 0.00 0.02 0.01 92 1010.0
20200401121938 40 45 0.0 3.0 0.00 0.02 0.01 92 1010.0
20200401121436 40 45 0.0 3.0 0.00 0.02 0.01 92 1009.9
20200401120930 40 45 0.0 2.0 0.00 0.02 0.01 92 1009.9
20200401120446 40 45 0.0 0.0 0.00 0.02 0.01 92 1009.8
20200401115942 40 45 0.0 0.0 0.00 0.02 0.01 92 1009.8
20200401115435 40 45 0.0 0.0 0.00 0.02 0.01 92 1009.7
20200401114930 40 45 0.0 0.0 0.00 0.02 0.01 92 1009.7
20200401114446 40 45 0.0 0.0 0.00 0.02 0.01 92 1009.7
20200401113941 40 45 0.0 0.0 0.00 0.02 0.01 92 1009.6
20200401113435 40 45 0.0 0.0 0.00 0.02 0.01 92 1009.6
20200401112933 40 45 0.0 0.0 0.00 0.02 0.01 92 1009.6
20200401112448 40 45 0.0 0.0 0.00 0.02 0.01 92 1009.5
20200401111941 40 45 0.0 0.0 0.00 0.02 0.01 92 1009.4
20200401111441 40 45 0.0 0.0 0.00 0.02 0.01 92 1009.4
20200401110936 40 45 0.0 0.0 0.00 0.02 0.01 92 1009.3
20200401110435 40 45 0.0 0.0 0.00 0.02 0.01 92 1009.3
20200401105932 40 45 0.0 0.0 0.00 0.02 0.01 92 1009.3
20200401105446 40 45 0.0 0.0 0.00 0.02 0.01 92 1009.3
20200401104941 40 45 0.0 0.0 0.00 0.02 0.01 92 1009.2
20200401104438 40 45 0.0 0.0 0.00 0.02 0.01 92 1009.2
20200401103933 40 45 0.0 0.0 0.00 0.02 0.01 92 1009.2
20200401103448 40 45 0.0 0.0 0.00 0.02 0.01 92 1009.1
20200401102946 40 45 0.0 0.0 0.00 0.02 0.01 92 1009.1
20200401102439 40 45 0.0 0.0 0.00 0.02 0.01 92 1009.1
20200401101934 40 45 0.0 0.0 0.01 0.02 0.01 92 1009.2
20200401101434 40 45 0.0 0.0 0.01 0.02 0.01 92 1009.1
20200401100947 40 45 0.0 0.0 0.01 0.02 0.01 92 1009.1
20200401100444 40 45 0.0 0.0 0.01 0.02 0.01 92 1009.1
20200401095942 40 45 0.0 0.0 0.01 0.02 0.01 92 1009.1
20200401095440 40 45 0.0 0.0 0.01 0.02 0.01 92 1009.1
20200401094935 40 45 0.0 0.0 0.01 0.02 0.01 92 1009.1
20200401094432 40 45 0.0 0.0 0.01 0.02 0.01 92 1009.1
20200401093946 40 45 0.0 0.0 0.01 0.02 0.01 92 1009.0
20200401093440 40 45 0.0 0.0 0.01 0.02 0.01 92 1008.9
20200401092936 40 45 0.0 0.0 0.01 0.02 0.01 92 1008.9
20200401092431 40 45 0.0 0.0 0.01 0.02 0.01 92 1008.9
20200401091444 40 45 0.0 3.0 0.00 0.01 0.00 92 1008.8
20200401090939 40 45 0.0 4.0 0.00 0.01 0.00 92 1008.8
20200401090435 40 45 0.0 6.0 0.00 0.01 0.00 92 1008.8
20200401085931 40 43 4.0 6.0 0.00 0.01 0.00 92 1008.8
20200401085446 40 66 3.0 4.0 0.00 0.01 0.00 92 1008.8
20200401084941 40 66 0.0 4.0 0.00 0.01 0.00 92 1008.8
20200401084437 40 66 1.0 4.0 0.00 0.01 0.00 92 1008.8
20200401083930 40 66 0.0 4.0 0.00 0.01 0.00 92 1008.8
20200401083429 40 66 0.0 4.0 0.00 0.01 0.00 92 1008.9
20200401082948 40 66 1.0 3.0 0.00 0.01 0.00 92 1008.8
20200401082441 40 66 0.0 0.0 0.00 0.01 0.00 92 1008.8
20200401081936 40 66 0.0 0.0 0.00 0.01 0.00 92 1008.9
20200401081432 40 66 0.0 0.0 0.00 0.01 0.00 92 1008.9
20200401080946 40 66 0.0 5.0 0.00 0.01 0.00 92 1008.9
20200401080441 40 66 2.0 5.0 0.00 0.01 0.00 92 1009.0
20200401075937 40 66 1.0 3.0 0.00 0.01 0.00 92 1009.0
20200401075433 40 66 1.0 3.0 0.00 0.01 0.00 92 1009.0
20200401074948 40 61 0.0 3.0 0.00 0.01 0.00 92 1008.9
20200401074443 40 61 1.0 3.0 0.00 0.01 0.00 92 1008.9
20200401073938 40 61 0.0 6.0 0.00 0.01 0.00 92 1008.9
20200401073432 40 61 3.0 6.0 0.00 0.01 0.00 92 1008.9
20200401072929 40 62 3.0 5.0 0.00 0.01 0.00 92 1008.9
20200401072443 41 74 3.0 5.0 0.00 0.01 0.00 92 1009.0
20200401071938 41 76 0.0 5.0 0.00 0.01 0.00 92 1008.9
20200401071434 41 76 0.0 5.0 0.00 0.01 0.00 92 1008.9
20200401070932 41 76 1.0 4.0 0.00 0.01 0.00 92 1009.0
20200401065944 41 76 2.0 5.0 0.00 0.01 0.00 92 1009.0
20200401065439 41 72 1.0 2.0 0.00 0.01 0.00 92 1009.0
20200401064935 41 72 0.0 2.0 0.00 0.01 0.00 92 1009.1
20200401064433 41 72 0.0 2.0 0.00 0.01 0.00 92 1009.1
20200401063947 41 72 0.0 2.0 0.00 0.01 0.00 92 1009.1
20200401063442 41 72 1.0 2.0 0.00 0.01 0.00 92 1009.1